Location: Carabito
(9.8355°N, 67.9249°W)
Time: 02:02:15
(UTC+00:00)

ARIANE 5 R/B - Pass Details

Date: 23 May 2024
Orbit: 747 x 794 km, 98.8° (Epoch: 12 June)

Event Time Altitude Azimuth Distance (km) Brightness Sun altitude
Rises 09:15:06 0° 15° (NNE) 3,196 6.3 -13.3°
Reaches altitude 10° 09:17:24 10° 16° (NNE) 2,267 5.5 -12.8°
Maximum altitude 09:22:23 78° 102° (ESE) 766 2.6 -11.6°
Drops below altitude 10° 09:27:20 10° 189° (S) 2,257 4.6 -10.5°
Sets 09:29:37 0° 190° (S) 3,181 5.4 -10.0°
